Year,Month,Day,Hour,Minute,Value (Times are PST for temperature in C)
2016,08,25,00,00,19.70
2016,08,25,00,01,19.70
2016,08,25,00,02,19.70
2016,08,25,00,03,19.70
2016,08,25,00,04,19.80
2016,08,25,00,05,19.80
2016,08,25,00,06,19.80
2016,08,25,00,07,19.80
2016,08,25,00,08,19.70
2016,08,25,00,09,19.70
2016,08,25,00,10,19.60
2016,08,25,00,11,19.50
2016,08,25,00,12,19.60
2016,08,25,00,13,19.50
2016,08,25,00,14,19.50
2016,08,25,00,15,19.40
2016,08,25,00,16,19.40
2016,08,25,00,17,19.40
2016,08,25,00,18,19.40
2016,08,25,00,19,19.30
2016,08,25,00,20,19.30
2016,08,25,00,21,19.30
2016,08,25,00,22,19.20
2016,08,25,00,23,19.20
2016,08,25,00,24,19.20
2016,08,25,00,25,19.20
2016,08,25,00,26,19.20
2016,08,25,00,27,19.20
2016,08,25,00,28,19.20
2016,08,25,00,29,19.30
2016,08,25,00,30,19.30
2016,08,25,00,31,19.30
2016,08,25,00,32,19.30
2016,08,25,00,33,19.30
2016,08,25,00,34,19.20
2016,08,25,00,35,19.20
2016,08,25,00,36,19.20
2016,08,25,00,37,19.20
2016,08,25,00,38,19.20
2016,08,25,00,39,19.20
2016,08,25,00,40,19.20
2016,08,25,00,41,19.20
2016,08,25,00,42,19.20
2016,08,25,00,43,19.10
2016,08,25,00,44,19.10
2016,08,25,00,45,19.10
2016,08,25,00,46,19.10
2016,08,25,00,47,19.10
2016,08,25,00,48,19.10
2016,08,25,00,49,19.10
2016,08,25,00,50,19.20
2016,08,25,00,51,19.20
2016,08,25,00,52,19.10
2016,08,25,00,53,19.20
2016,08,25,00,54,19.20
2016,08,25,00,55,19.20
2016,08,25,00,56,19.10
2016,08,25,00,57,19.00
2016,08,25,00,58,19.00
2016,08,25,00,59,18.90
2016,08,25,01,00,18.90
2016,08,25,01,01,18.90
2016,08,25,01,02,18.80
2016,08,25,01,03,18.80
2016,08,25,01,04,18.80
2016,08,25,01,05,18.80
2016,08,25,01,06,18.70
2016,08,25,01,07,18.70
2016,08,25,01,08,18.80
2016,08,25,01,09,18.80
2016,08,25,01,10,18.80
2016,08,25,01,11,18.80
2016,08,25,01,12,18.80
2016,08,25,01,13,18.70
2016,08,25,01,14,18.70
2016,08,25,01,15,18.70
2016,08,25,01,16,18.70
2016,08,25,01,17,18.60
2016,08,25,01,18,18.60
2016,08,25,01,19,18.50
2016,08,25,01,20,18.50
2016,08,25,01,21,18.40
2016,08,25,01,22,18.30
2016,08,25,01,23,18.10
2016,08,25,01,24,18.10
2016,08,25,01,25,18.30
2016,08,25,01,26,18.40
2016,08,25,01,27,18.40
2016,08,25,01,28,18.50
2016,08,25,01,29,18.50
2016,08,25,01,30,18.50
2016,08,25,01,31,18.50
2016,08,25,01,32,18.50
2016,08,25,01,33,18.40
2016,08,25,01,34,18.40
2016,08,25,01,35,18.30
2016,08,25,01,36,18.30
2016,08,25,01,37,18.20
2016,08,25,01,38,18.20
2016,08,25,01,39,18.20
2016,08,25,01,40,18.00
2016,08,25,01,41,17.90
2016,08,25,01,42,17.90
2016,08,25,01,43,17.90
2016,08,25,01,44,17.90
2016,08,25,01,45,18.00
2016,08,25,01,46,18.10
2016,08,25,01,47,18.20
2016,08,25,01,48,18.20
2016,08,25,01,49,18.20
2016,08,25,01,50,18.20
2016,08,25,01,51,18.20
2016,08,25,01,52,18.20
2016,08,25,01,53,18.30
2016,08,25,01,54,18.30
2016,08,25,01,55,18.30
2016,08,25,01,56,18.40
2016,08,25,01,57,18.40
2016,08,25,01,58,18.40
2016,08,25,01,59,18.40
2016,08,25,02,00,18.40
2016,08,25,02,01,18.50
2016,08,25,02,02,18.50
2016,08,25,02,03,18.40
2016,08,25,02,04,18.40
2016,08,25,02,05,18.30
2016,08,25,02,06,18.20
2016,08,25,02,07,18.10
2016,08,25,02,08,18.00
2016,08,25,02,09,18.00
2016,08,25,02,10,17.90
2016,08,25,02,11,17.90
2016,08,25,02,12,18.00
2016,08,25,02,13,18.00
2016,08,25,02,14,18.10
2016,08,25,02,15,18.20
2016,08,25,02,16,18.30
2016,08,25,02,17,18.30
2016,08,25,02,18,18.40
2016,08,25,02,19,18.40
2016,08,25,02,20,18.50
2016,08,25,02,21,18.50
2016,08,25,02,22,18.60
2016,08,25,02,23,18.60
2016,08,25,02,24,18.70
2016,08,25,02,25,18.80
2016,08,25,02,26,18.80
2016,08,25,02,27,18.80
2016,08,25,02,28,18.90
2016,08,25,02,29,18.90
2016,08,25,02,30,18.90
2016,08,25,02,31,18.90
2016,08,25,02,32,18.90
2016,08,25,02,33,18.80
2016,08,25,02,34,18.90
2016,08,25,02,35,18.90
2016,08,25,02,36,18.80
2016,08,25,02,37,18.90
2016,08,25,02,38,18.80
2016,08,25,02,39,18.80
2016,08,25,02,40,18.80
2016,08,25,02,41,18.90
2016,08,25,02,42,18.80
2016,08,25,02,43,18.80
2016,08,25,02,44,18.70
2016,08,25,02,45,18.60
2016,08,25,02,46,18.60
2016,08,25,02,47,18.50
2016,08,25,02,48,18.50
2016,08,25,02,49,18.40
2016,08,25,02,50,18.40
2016,08,25,02,51,18.40
2016,08,25,02,52,18.40
2016,08,25,02,53,18.40
2016,08,25,02,54,18.50
2016,08,25,02,55,18.50
2016,08,25,02,56,18.60
2016,08,25,02,57,18.70
2016,08,25,02,58,18.70
2016,08,25,02,59,18.80
2016,08,25,03,00,18.80
2016,08,25,03,01,18.90
2016,08,25,03,02,18.90
2016,08,25,03,03,18.90
2016,08,25,03,04,18.90
2016,08,25,03,05,18.90
2016,08,25,03,06,19.00
2016,08,25,03,07,19.00
2016,08,25,03,08,19.00
2016,08,25,03,09,18.90
2016,08,25,03,10,18.90
2016,08,25,03,11,18.90
2016,08,25,03,12,18.90
2016,08,25,03,13,18.80
2016,08,25,03,14,18.80
2016,08,25,03,15,18.80
2016,08,25,03,16,18.70
2016,08,25,03,17,18.70
2016,08,25,03,18,18.70
2016,08,25,03,19,18.70
2016,08,25,03,20,18.60
2016,08,25,03,21,18.60
2016,08,25,03,22,18.60
2016,08,25,03,23,18.60
2016,08,25,03,24,18.60
2016,08,25,03,25,18.60
2016,08,25,03,26,18.60
2016,08,25,03,27,18.50
2016,08,25,03,28,18.50
2016,08,25,03,29,18.40
2016,08,25,03,30,18.40
2016,08,25,03,31,18.40
2016,08,25,03,32,18.40
2016,08,25,03,33,18.30
2016,08,25,03,34,18.30
2016,08,25,03,35,18.30
2016,08,25,03,36,18.30
2016,08,25,03,37,18.30
2016,08,25,03,38,18.30
2016,08,25,03,39,18.30
2016,08,25,03,40,18.20
2016,08,25,03,41,18.20
2016,08,25,03,42,18.20
2016,08,25,03,43,18.30
2016,08,25,03,44,18.30
2016,08,25,03,45,18.30
2016,08,25,03,46,18.30
2016,08,25,03,47,18.30
2016,08,25,03,48,18.30
2016,08,25,03,49,18.30
2016,08,25,03,50,18.30
2016,08,25,03,51,18.30
2016,08,25,03,52,18.30
2016,08,25,03,53,18.30
2016,08,25,03,54,18.30
2016,08,25,03,55,18.40
2016,08,25,03,56,18.40
2016,08,25,03,57,18.40
2016,08,25,03,58,18.40
2016,08,25,03,59,18.40
2016,08,25,04,00,18.40
2016,08,25,04,01,18.40
2016,08,25,04,02,18.40
2016,08,25,04,03,18.40
2016,08,25,04,04,18.40
2016,08,25,04,05,18.40
2016,08,25,04,06,18.50
2016,08,25,04,07,18.50
2016,08,25,04,08,18.50
2016,08,25,04,09,18.50
2016,08,25,04,10,18.60
2016,08,25,04,11,18.60
2016,08,25,04,12,18.60
2016,08,25,04,13,18.60
2016,08,25,04,14,18.60
2016,08,25,04,15,18.70
2016,08,25,04,16,18.70
2016,08,25,04,17,18.70
2016,08,25,04,18,18.70
2016,08,25,04,19,18.70
2016,08,25,04,20,18.70
2016,08,25,04,21,18.70
2016,08,25,04,22,18.70
2016,08,25,04,23,18.70
2016,08,25,04,24,18.80
2016,08,25,04,25,18.70
2016,08,25,04,26,18.70
2016,08,25,04,27,18.70
2016,08,25,04,28,18.60
2016,08,25,04,29,18.50
2016,08,25,04,30,18.40
2016,08,25,04,31,18.30
2016,08,25,04,32,18.20
2016,08,25,04,33,18.00
2016,08,25,04,34,17.90
2016,08,25,04,35,17.70
2016,08,25,04,36,17.60
2016,08,25,04,37,17.40
2016,08,25,04,38,17.30
2016,08,25,04,39,17.20
2016,08,25,04,40,17.10
2016,08,25,04,41,17.00
2016,08,25,04,42,16.90
2016,08,25,04,43,16.80
2016,08,25,04,44,16.80
2016,08,25,04,45,16.70
2016,08,25,04,46,16.70
2016,08,25,04,47,16.70
2016,08,25,04,48,16.70
2016,08,25,04,49,16.70
2016,08,25,04,50,16.70
2016,08,25,04,51,16.70
2016,08,25,04,52,16.80
2016,08,25,04,53,16.80
2016,08,25,04,54,16.80
2016,08,25,04,55,16.90
2016,08,25,04,56,16.90
2016,08,25,04,57,16.90
2016,08,25,04,58,17.00
2016,08,25,04,59,17.10
2016,08,25,05,00,17.20
2016,08,25,05,01,17.30
2016,08,25,05,02,17.30
2016,08,25,05,03,17.40
2016,08,25,05,04,17.50
2016,08,25,05,05,17.60
2016,08,25,05,06,17.70
2016,08,25,05,07,17.70
2016,08,25,05,08,17.80
2016,08,25,05,09,17.90
2016,08,25,05,10,17.90
2016,08,25,05,11,18.00
2016,08,25,05,12,18.00
2016,08,25,05,13,18.00
2016,08,25,05,14,18.10
2016,08,25,05,15,18.10
2016,08,25,05,16,18.10
2016,08,25,05,17,18.10
2016,08,25,05,18,18.10
2016,08,25,05,19,18.00
2016,08,25,05,20,18.00
2016,08,25,05,21,17.90
2016,08,25,05,22,17.90
2016,08,25,05,23,17.90
2016,08,25,05,24,17.90
2016,08,25,05,25,17.90
2016,08,25,05,26,17.80
2016,08,25,05,27,17.90
2016,08,25,05,28,17.90
2016,08,25,05,29,17.90
2016,08,25,05,30,17.90
2016,08,25,05,31,17.90
2016,08,25,05,32,17.80
2016,08,25,05,33,17.80
2016,08,25,05,34,17.80
2016,08,25,05,35,17.70
2016,08,25,05,36,17.70
2016,08,25,05,37,17.60
2016,08,25,05,38,17.50
2016,08,25,05,39,17.50
2016,08,25,05,40,17.40
2016,08,25,05,41,17.40
2016,08,25,05,42,17.30
2016,08,25,05,43,17.20
2016,08,25,05,44,17.20
2016,08,25,05,45,17.10
2016,08,25,05,46,17.10
2016,08,25,05,47,17.10
2016,08,25,05,48,17.10
2016,08,25,05,49,17.10
2016,08,25,05,50,17.10
2016,08,25,05,51,17.20
2016,08,25,05,52,17.20
2016,08,25,05,53,17.20
2016,08,25,05,54,17.20
2016,08,25,05,55,17.10
2016,08,25,05,56,17.00
2016,08,25,05,57,16.90
2016,08,25,05,58,16.80
2016,08,25,05,59,16.70
2016,08,25,06,00,16.60
2016,08,25,06,01,16.60
2016,08,25,06,02,16.50
2016,08,25,06,03,16.40
2016,08,25,06,04,16.30
2016,08,25,06,05,16.30
2016,08,25,06,06,16.20
2016,08,25,06,07,16.20
2016,08,25,06,08,16.20
2016,08,25,06,09,16.10
2016,08,25,06,10,16.10
2016,08,25,06,11,16.00
2016,08,25,06,12,16.00
2016,08,25,06,13,15.90
2016,08,25,06,14,15.90
2016,08,25,06,15,15.90
2016,08,25,06,16,15.80
2016,08,25,06,17,15.80
2016,08,25,06,18,15.90
2016,08,25,06,19,15.90
2016,08,25,06,20,16.00
2016,08,25,06,21,16.10
2016,08,25,06,22,16.10
2016,08,25,06,23,16.20
2016,08,25,06,24,16.20
2016,08,25,06,25,16.20
2016,08,25,06,26,16.20
2016,08,25,06,27,16.30
2016,08,25,06,28,16.30
2016,08,25,06,29,16.40
2016,08,25,06,30,16.50
2016,08,25,06,31,16.50
2016,08,25,06,32,16.60
2016,08,25,06,33,16.60
2016,08,25,06,34,16.60
2016,08,25,06,35,16.70
2016,08,25,06,36,16.70
2016,08,25,06,37,16.70
2016,08,25,06,38,16.70
2016,08,25,06,39,16.70
2016,08,25,06,40,16.80
2016,08,25,06,41,16.80
2016,08,25,06,42,16.90
2016,08,25,06,43,16.90
2016,08,25,06,44,16.90
2016,08,25,06,45,16.90
2016,08,25,06,46,16.90
2016,08,25,06,47,16.80
2016,08,25,06,48,16.80
2016,08,25,06,49,16.80
2016,08,25,06,50,16.80
2016,08,25,06,51,16.80
2016,08,25,06,52,16.90
2016,08,25,06,53,16.90
2016,08,25,06,54,16.90
2016,08,25,06,55,16.90
2016,08,25,06,56,17.00
2016,08,25,06,57,17.00
2016,08,25,06,58,17.10
2016,08,25,06,59,17.10
2016,08,25,07,00,17.10
2016,08,25,07,01,17.20
2016,08,25,07,02,17.20
2016,08,25,07,03,17.30
2016,08,25,07,04,17.30
2016,08,25,07,05,17.30
2016,08,25,07,06,17.40
2016,08,25,07,07,17.40
2016,08,25,07,08,17.40
2016,08,25,07,09,17.40
2016,08,25,07,10,17.30
2016,08,25,07,11,17.30
2016,08,25,07,12,17.30
2016,08,25,07,13,17.20
2016,08,25,07,14,17.20
2016,08,25,07,15,17.10
2016,08,25,07,16,17.10
2016,08,25,07,17,17.10
2016,08,25,07,18,17.10
2016,08,25,07,19,17.10
2016,08,25,07,20,17.10
2016,08,25,07,21,17.10
2016,08,25,07,22,17.20
2016,08,25,07,23,17.20
2016,08,25,07,24,17.20
2016,08,25,07,25,17.20
2016,08,25,07,26,17.20
2016,08,25,07,27,17.20
2016,08,25,07,28,17.20
2016,08,25,07,29,17.20
2016,08,25,07,30,17.20
2016,08,25,07,31,17.20
2016,08,25,07,32,17.20
2016,08,25,07,33,17.20
2016,08,25,07,34,17.20
2016,08,25,07,35,17.20
2016,08,25,07,36,17.20
2016,08,25,07,37,17.20
2016,08,25,07,38,17.20
2016,08,25,07,39,17.20
2016,08,25,07,40,17.20
2016,08,25,07,41,17.10
2016,08,25,07,42,17.10
2016,08,25,07,43,17.10
2016,08,25,07,44,17.10
2016,08,25,07,45,17.10
2016,08,25,07,46,17.20
2016,08,25,07,47,17.20
2016,08,25,07,48,17.20
2016,08,25,07,49,17.20
2016,08,25,07,50,17.20
2016,08,25,07,51,17.30
2016,08,25,07,52,17.30
2016,08,25,07,53,17.30
2016,08,25,07,54,17.30
2016,08,25,07,55,17.40
2016,08,25,07,56,17.50
2016,08,25,07,57,17.50
2016,08,25,07,58,17.60
2016,08,25,07,59,17.70
2016,08,25,08,00,17.80
2016,08,25,08,01,17.80
2016,08,25,08,02,17.90
2016,08,25,08,03,17.90
2016,08,25,08,04,17.90
2016,08,25,08,05,18.00
2016,08,25,08,06,18.00
2016,08,25,08,07,18.10
2016,08,25,08,08,18.10
2016,08,25,08,09,18.10
2016,08,25,08,10,18.10
2016,08,25,08,11,18.20
2016,08,25,08,12,18.20
2016,08,25,08,13,18.20
2016,08,25,08,14,18.30
2016,08,25,08,15,18.40
2016,08,25,08,16,18.50
2016,08,25,08,17,18.50
2016,08,25,08,18,18.60
2016,08,25,08,19,18.70
2016,08,25,08,20,18.80
2016,08,25,08,21,18.90
2016,08,25,08,22,18.90
2016,08,25,08,23,19.00
2016,08,25,08,24,19.10
2016,08,25,08,25,19.20
2016,08,25,08,26,19.30
2016,08,25,08,27,19.50
2016,08,25,08,28,19.60
2016,08,25,08,29,19.70
2016,08,25,08,30,19.80
2016,08,25,08,31,19.80
2016,08,25,08,32,19.90
2016,08,25,08,33,19.90
2016,08,25,08,34,20.00
2016,08,25,08,35,20.00
2016,08,25,08,36,20.10
2016,08,25,08,37,20.20
2016,08,25,08,38,20.30
2016,08,25,08,39,20.40
2016,08,25,08,40,20.40
2016,08,25,08,41,20.50
2016,08,25,08,42,20.60
2016,08,25,08,43,20.70
2016,08,25,08,44,20.80
2016,08,25,08,45,20.90
2016,08,25,08,46,21.00
2016,08,25,08,47,21.10
2016,08,25,08,48,21.20
2016,08,25,08,49,21.40
2016,08,25,08,50,21.50
2016,08,25,08,51,21.60
2016,08,25,08,52,21.70
2016,08,25,08,53,21.80
2016,08,25,08,54,21.90
2016,08,25,08,55,22.00
2016,08,25,08,56,22.10
2016,08,25,08,57,22.20
2016,08,25,08,58,22.30
2016,08,25,08,59,22.40
2016,08,25,09,00,22.50
2016,08,25,09,01,22.60
2016,08,25,09,02,22.70
2016,08,25,09,03,22.80
2016,08,25,09,04,22.90
2016,08,25,09,05,22.90
2016,08,25,09,06,23.00
2016,08,25,09,07,23.00
2016,08,25,09,08,23.10
2016,08,25,09,09,23.10
2016,08,25,09,10,23.10
2016,08,25,09,11,23.20
2016,08,25,09,12,23.20
2016,08,25,09,13,23.30
2016,08,25,09,14,23.40
2016,08,25,09,15,23.50
2016,08,25,09,16,23.60
2016,08,25,09,17,23.60
2016,08,25,09,18,23.70
2016,08,25,09,19,23.70
2016,08,25,09,20,23.70
2016,08,25,09,21,23.80
2016,08,25,09,22,23.80
2016,08,25,09,23,23.80
2016,08,25,09,24,23.90
2016,08,25,09,25,23.90
2016,08,25,09,26,24.00
2016,08,25,09,27,24.00
2016,08,25,09,28,24.10
2016,08,25,09,29,24.10
2016,08,25,09,30,24.10
2016,08,25,09,31,24.20
2016,08,25,09,32,24.20
2016,08,25,09,33,24.20
2016,08,25,09,34,24.20
2016,08,25,09,35,24.20
2016,08,25,09,36,24.20
2016,08,25,09,37,24.20
2016,08,25,09,38,24.20
2016,08,25,09,39,24.20
2016,08,25,09,40,24.20
2016,08,25,09,41,24.30
2016,08,25,09,42,24.30
2016,08,25,09,43,24.30
2016,08,25,09,44,24.30
2016,08,25,09,45,24.40
2016,08,25,09,46,24.40
2016,08,25,09,47,24.50
2016,08,25,09,48,24.60
2016,08,25,09,49,24.70
2016,08,25,09,50,24.70
2016,08,25,09,51,24.80
2016,08,25,09,52,24.80
2016,08,25,09,53,24.80
2016,08,25,09,54,24.80
2016,08,25,09,55,24.80
2016,08,25,09,56,24.80
2016,08,25,09,57,24.80
2016,08,25,09,58,24.80
2016,08,25,09,59,24.80
2016,08,25,10,00,24.80
2016,08,25,10,01,24.80
2016,08,25,10,02,24.80
2016,08,25,10,03,24.80
2016,08,25,10,04,24.80
2016,08,25,10,05,24.80
2016,08,25,10,06,24.80
2016,08,25,10,07,24.80
2016,08,25,10,08,24.80
2016,08,25,10,09,24.80
2016,08,25,10,10,24.80
2016,08,25,10,11,24.80
2016,08,25,10,12,24.80
2016,08,25,10,13,24.80
2016,08,25,10,14,24.90
2016,08,25,10,15,24.90
2016,08,25,10,16,25.00
2016,08,25,10,17,25.10
2016,08,25,10,18,25.10
2016,08,25,10,19,25.10
2016,08,25,10,20,25.10
2016,08,25,10,21,25.10
2016,08,25,10,22,25.10
2016,08,25,10,23,25.00
2016,08,25,10,24,25.00
2016,08,25,10,25,24.90
2016,08,25,10,26,24.90
2016,08,25,10,27,24.90
2016,08,25,10,28,25.00
2016,08,25,10,29,25.00
2016,08,25,10,30,25.10
2016,08,25,10,31,25.20
2016,08,25,10,32,25.20
2016,08,25,10,33,25.20
2016,08,25,10,34,25.20
2016,08,25,10,35,25.20
2016,08,25,10,36,25.30
2016,08,25,10,37,25.30
2016,08,25,10,38,25.40
2016,08,25,10,39,25.40
2016,08,25,10,40,25.30
2016,08,25,10,41,25.40
2016,08,25,10,42,25.40
2016,08,25,10,43,25.40
2016,08,25,10,44,25.50
2016,08,25,10,45,25.50
2016,08,25,10,46,25.50
2016,08,25,10,47,25.60
2016,08,25,10,48,25.50
2016,08,25,10,49,25.60
2016,08,25,10,50,25.60
2016,08,25,10,51,25.60
2016,08,25,10,52,25.60
2016,08,25,10,53,25.50
2016,08,25,10,54,25.50
2016,08,25,10,55,25.60
2016,08,25,10,56,25.60
2016,08,25,10,57,25.60
2016,08,25,10,58,25.70
2016,08,25,10,59,25.70
2016,08,25,11,00,25.80
2016,08,25,11,01,25.80
2016,08,25,11,02,25.90
2016,08,25,11,03,25.90
2016,08,25,11,04,25.90
2016,08,25,11,05,26.00
2016,08,25,11,06,26.10
2016,08,25,11,07,26.20
2016,08,25,11,08,26.20
2016,08,25,11,09,26.30
2016,08,25,11,10,26.30
2016,08,25,11,11,26.40
2016,08,25,11,12,26.40
2016,08,25,11,13,26.40
2016,08,25,11,14,26.40
2016,08,25,11,15,26.50
2016,08,25,11,16,26.50
2016,08,25,11,17,26.50
2016,08,25,11,18,26.60
2016,08,25,11,19,26.60
2016,08,25,11,20,26.60
2016,08,25,11,21,26.60
2016,08,25,11,22,26.60
2016,08,25,11,23,26.60
2016,08,25,11,24,26.60
2016,08,25,11,25,26.60
2016,08,25,11,26,26.70
2016,08,25,11,27,26.70
2016,08,25,11,28,26.60
2016,08,25,11,29,26.60
2016,08,25,11,30,26.50
2016,08,25,11,31,26.50
2016,08,25,11,32,26.40
2016,08,25,11,33,26.40
2016,08,25,11,34,26.30
2016,08,25,11,35,26.30
2016,08,25,11,36,26.30
2016,08,25,11,37,26.30
2016,08,25,11,38,26.40
2016,08,25,11,39,26.40
2016,08,25,11,40,26.50
2016,08,25,11,41,26.60
2016,08,25,11,42,26.60
2016,08,25,11,43,26.70
2016,08,25,11,44,26.70
2016,08,25,11,45,26.80
2016,08,25,11,46,26.70
2016,08,25,11,47,26.70
2016,08,25,11,48,26.70
2016,08,25,11,49,26.70
2016,08,25,11,50,26.70
2016,08,25,11,51,26.70
2016,08,25,11,52,26.70
2016,08,25,11,53,26.80
2016,08,25,11,54,26.90
2016,08,25,11,55,27.00
2016,08,25,11,56,27.10
2016,08,25,11,57,27.20
2016,08,25,11,58,27.30
2016,08,25,11,59,27.40
2016,08,25,12,00,27.40
2016,08,25,12,01,27.40
2016,08,25,12,02,27.40
2016,08,25,12,03,27.40
2016,08,25,12,04,27.40
2016,08,25,12,05,27.40
2016,08,25,12,06,27.40
2016,08,25,12,07,27.40
2016,08,25,12,08,27.40
2016,08,25,12,09,27.40
2016,08,25,12,10,27.50
2016,08,25,12,11,27.50
2016,08,25,12,12,27.60
2016,08,25,12,13,27.60
2016,08,25,12,14,27.70
2016,08,25,12,15,27.70
2016,08,25,12,16,27.70
2016,08,25,12,17,27.70
2016,08,25,12,18,27.70
2016,08,25,12,19,27.60
2016,08,25,12,20,27.50
2016,08,25,12,21,27.50
2016,08,25,12,22,27.40
2016,08,25,12,23,27.40
2016,08,25,12,24,27.40
2016,08,25,12,25,27.50
2016,08,25,12,26,27.50
2016,08,25,12,27,27.50
2016,08,25,12,28,27.50
2016,08,25,12,29,27.50
2016,08,25,12,30,27.50
2016,08,25,12,31,27.60
2016,08,25,12,32,27.60
2016,08,25,12,33,27.60
2016,08,25,12,34,27.60
2016,08,25,12,35,27.70
2016,08,25,12,36,27.60
2016,08,25,12,37,27.60
2016,08,25,12,38,27.60
2016,08,25,12,39,27.60
2016,08,25,12,40,27.70
2016,08,25,12,41,27.80
2016,08,25,12,42,27.80
2016,08,25,12,43,27.80
2016,08,25,12,44,27.90
2016,08,25,12,45,27.90
2016,08,25,12,46,27.80
2016,08,25,12,47,27.80
2016,08,25,12,48,27.70
2016,08,25,12,49,27.70
2016,08,25,12,50,27.70
2016,08,25,12,51,27.70
2016,08,25,12,52,27.80
2016,08,25,12,53,27.80
2016,08,25,12,54,27.80
2016,08,25,12,55,27.80
2016,08,25,12,56,27.90
2016,08,25,12,57,27.90
2016,08,25,12,58,28.00
2016,08,25,12,59,28.00
2016,08,25,13,00,28.10
2016,08,25,13,01,28.10
2016,08,25,13,02,28.10
2016,08,25,13,03,28.10
2016,08,25,13,04,28.10
2016,08,25,13,05,28.10
2016,08,25,13,06,28.10
2016,08,25,13,07,28.00
2016,08,25,13,08,28.10
2016,08,25,13,09,28.10
2016,08,25,13,10,28.10
2016,08,25,13,11,28.20
2016,08,25,13,12,28.20
2016,08,25,13,13,28.30
2016,08,25,13,14,28.30
2016,08,25,13,15,28.30
2016,08,25,13,16,28.40
2016,08,25,13,17,28.40
2016,08,25,13,18,28.50
2016,08,25,13,19,28.60
2016,08,25,13,20,28.60
2016,08,25,13,21,28.60
2016,08,25,13,22,28.50
2016,08,25,13,23,28.50
2016,08,25,13,24,28.40
2016,08,25,13,25,28.30
2016,08,25,13,26,28.30
2016,08,25,13,27,28.20
2016,08,25,13,28,28.10
2016,08,25,13,29,28.00
2016,08,25,13,30,27.90
2016,08,25,13,31,27.80
2016,08,25,13,32,27.80
2016,08,25,13,33,27.80
2016,08,25,13,34,27.80
2016,08,25,13,35,27.80
2016,08,25,13,36,27.80
2016,08,25,13,37,27.80
2016,08,25,13,38,27.70
2016,08,25,13,39,27.70
2016,08,25,13,40,27.70
2016,08,25,13,41,27.80
2016,08,25,13,42,27.80
2016,08,25,13,43,27.90
2016,08,25,13,44,28.00
2016,08,25,13,45,28.00
2016,08,25,13,46,28.10
2016,08,25,13,47,28.10
2016,08,25,13,48,28.20
2016,08,25,13,49,28.20
2016,08,25,13,50,28.20
2016,08,25,13,51,28.30
2016,08,25,13,52,28.40
2016,08,25,13,53,28.40
2016,08,25,13,54,28.50
2016,08,25,13,55,28.60
2016,08,25,13,56,28.60
2016,08,25,13,57,28.60
2016,08,25,13,58,28.60
2016,08,25,13,59,28.60
2016,08,25,14,00,28.50
2016,08,25,14,01,28.50
2016,08,25,14,02,28.40
2016,08,25,14,03,28.40
2016,08,25,14,04,28.40
2016,08,25,14,05,28.50
2016,08,25,14,06,28.50
2016,08,25,14,07,28.50
2016,08,25,14,08,28.60
2016,08,25,14,09,28.60
2016,08,25,14,10,28.60
2016,08,25,14,11,28.60
2016,08,25,14,12,28.60
2016,08,25,14,13,28.60
2016,08,25,14,14,28.50
2016,08,25,14,15,28.50
2016,08,25,14,16,28.50
2016,08,25,14,17,28.60
2016,08,25,14,18,28.60
2016,08,25,14,19,28.60
2016,08,25,14,20,28.60
2016,08,25,14,21,28.60
2016,08,25,14,22,28.60
2016,08,25,14,23,28.60
2016,08,25,14,24,28.60
2016,08,25,14,25,28.50
2016,08,25,14,26,28.40
2016,08,25,14,27,28.40
2016,08,25,14,28,28.40
2016,08,25,14,29,28.50
2016,08,25,14,30,28.50
2016,08,25,14,31,28.60
2016,08,25,14,32,28.70
2016,08,25,14,33,28.70
2016,08,25,14,34,28.70
2016,08,25,14,35,28.70
2016,08,25,14,36,28.70
2016,08,25,14,37,28.70
2016,08,25,14,38,28.60
2016,08,25,14,39,28.60
2016,08,25,14,40,28.50
2016,08,25,14,41,28.50
2016,08,25,14,42,28.40
2016,08,25,14,43,28.40
2016,08,25,14,44,28.40
2016,08,25,14,45,28.40
2016,08,25,14,46,28.40
2016,08,25,14,47,28.40
2016,08,25,14,48,28.40
2016,08,25,14,49,28.30
2016,08,25,14,50,28.30
2016,08,25,14,51,28.30
2016,08,25,14,52,28.30
2016,08,25,14,53,28.30
2016,08,25,14,54,28.40
2016,08,25,14,55,28.50
2016,08,25,14,56,28.60
2016,08,25,14,57,28.70
2016,08,25,14,58,28.80
2016,08,25,14,59,28.90
2016,08,25,15,00,29.00
2016,08,25,15,01,29.10
2016,08,25,15,02,29.20
2016,08,25,15,03,29.20
2016,08,25,15,04,29.20
2016,08,25,15,05,29.30
2016,08,25,15,06,29.30
2016,08,25,15,07,29.40
2016,08,25,15,08,29.40
2016,08,25,15,09,29.40
2016,08,25,15,10,29.50
2016,08,25,15,11,29.50
2016,08,25,15,12,29.50
2016,08,25,15,13,29.50
2016,08,25,15,14,29.60
2016,08,25,15,15,29.60
2016,08,25,15,16,29.70
2016,08,25,15,17,29.70
2016,08,25,15,18,29.80
2016,08,25,15,19,29.80
2016,08,25,15,20,29.80
2016,08,25,15,21,29.80
2016,08,25,15,22,29.80
2016,08,25,15,23,29.70
2016,08,25,15,24,29.70
2016,08,25,15,25,29.80
2016,08,25,15,26,29.80
2016,08,25,15,27,29.90
2016,08,25,15,28,30.00
2016,08,25,15,29,30.10
2016,08,25,15,30,30.20
2016,08,25,15,31,30.30
2016,08,25,15,32,30.30
2016,08,25,15,33,30.40
2016,08,25,15,34,30.40
2016,08,25,15,35,30.40
2016,08,25,15,36,30.40
2016,08,25,15,37,30.40
2016,08,25,15,38,30.30
2016,08,25,15,39,30.30
2016,08,25,15,40,30.30
2016,08,25,15,41,30.30
2016,08,25,15,42,30.40
2016,08,25,15,43,30.40
2016,08,25,15,44,30.30
2016,08,25,15,45,30.30
2016,08,25,15,46,30.30
2016,08,25,15,47,30.40
2016,08,25,15,48,30.40
2016,08,25,15,49,30.40
2016,08,25,15,50,30.40
2016,08,25,15,51,30.50
2016,08,25,15,52,30.50
2016,08,25,15,53,30.60
2016,08,25,15,54,30.60
2016,08,25,15,55,30.60
2016,08,25,15,56,30.60
2016,08,25,15,57,30.60
2016,08,25,15,58,30.50
2016,08,25,15,59,30.50
2016,08,25,16,00,30.50
2016,08,25,16,01,30.40
2016,08,25,16,02,30.40
2016,08,25,16,03,30.50
2016,08,25,16,04,30.50
2016,08,25,16,05,30.50
2016,08,25,16,06,30.60
2016,08,25,16,07,30.60
2016,08,25,16,08,30.60
2016,08,25,16,09,30.60
2016,08,25,16,10,30.50
2016,08,25,16,11,30.50
2016,08,25,16,12,30.40
2016,08,25,16,13,30.40
2016,08,25,16,14,30.40
2016,08,25,16,15,30.50
2016,08,25,16,16,30.50
2016,08,25,16,17,30.40
2016,08,25,16,18,30.40
2016,08,25,16,19,30.40
2016,08,25,16,20,30.50
2016,08,25,16,21,30.60
2016,08,25,16,22,30.60
2016,08,25,16,23,30.60
2016,08,25,16,24,30.60
2016,08,25,16,25,30.60
2016,08,25,16,26,30.50
2016,08,25,16,27,30.50
2016,08,25,16,28,30.40
2016,08,25,16,29,30.40
2016,08,25,16,30,30.40
2016,08,25,16,31,30.40
2016,08,25,16,32,30.40
2016,08,25,16,33,30.30
2016,08,25,16,34,30.30
2016,08,25,16,35,30.30
2016,08,25,16,36,30.30
2016,08,25,16,37,30.30
2016,08,25,16,38,30.40
2016,08,25,16,39,30.40
2016,08,25,16,40,30.50
2016,08,25,16,41,30.60
2016,08,25,16,42,30.70
2016,08,25,16,43,30.80
2016,08,25,16,44,30.90
2016,08,25,16,45,31.10
2016,08,25,16,46,31.10
2016,08,25,16,47,31.20
2016,08,25,16,48,31.30
2016,08,25,16,49,31.30
2016,08,25,16,50,31.40
2016,08,25,16,51,31.40
2016,08,25,16,52,31.50
2016,08,25,16,53,31.50
2016,08,25,16,54,31.60
2016,08,25,16,55,31.60
2016,08,25,16,56,31.60
2016,08,25,16,57,31.60
2016,08,25,16,58,31.60
2016,08,25,16,59,31.70
2016,08,25,17,00,31.70
2016,08,25,17,01,31.70
2016,08,25,17,02,31.80
2016,08,25,17,03,31.80
2016,08,25,17,04,31.90
2016,08,25,17,05,31.90
2016,08,25,17,06,32.00
2016,08,25,17,07,32.10
2016,08,25,17,08,32.10
2016,08,25,17,09,32.10
2016,08,25,17,10,32.20
2016,08,25,17,11,32.20
2016,08,25,17,12,32.10
2016,08,25,17,13,32.10
2016,08,25,17,14,32.10
2016,08,25,17,15,32.20
2016,08,25,17,16,32.20
2016,08,25,17,17,32.30
2016,08,25,17,18,32.30
2016,08,25,17,19,32.30